Regional Weather Roundup
Issued by NWS

Home | Current Version | Previous Version | Graphics & Text | Print | Product List | Glossary On
Versions: 1 2 3 4 5 6 7 8 9 10 11 12 13 14 15 16 17 18 19 20 21 22 23 24 25 26 27 28 29 30 31 32 33 34 35 36 37 38 39 40 41 42 43 44 45 46 47 48 49 50
000
ASUS45 KBOI 271110
RWRID
WEATHER ROUNDUP FOR IDAHO
NATIONAL WEATHER SERVICE BOISE ID
500 AM MDT FRI MAR 27 2015

NOTE: "FAIR" INDICATES FEW OR NO CLOUDS BELOW 12000 FEET
WITH NO SIGNIFICANT WEATHER AND/OR OBSTRUCTIONS TO VISIBILITY

IDZ012-014-271200-
SOUTHWEST IDAHO


CITY           SKY/WX    TMP DP  RH WIND       PRES   REMARKS
BOISE          CLEAR     48  40  73 SE8       30.23F
CALDWELL       CLEAR     39  30  70 SE5       30.25S
MOUNTAIN HOME  CLEAR     38  35  87 SE3       30.24F
$$

IDZ016-017-271200-
SOUTHCENTRAL IDAHO


CITY           SKY/WX    TMP DP  RH WIND       PRES   REMARKS
BURLEY         CLEAR     34  32  92 E3        30.27F
JEROME         CLEAR     40  33  76 NE10      30.27F WCI  33
TWIN FALLS     CLEAR     39  32  76 SE5       30.27S
$$

IDZ019>023-271200-
SOUTHEAST IDAHO


CITY           SKY/WX    TMP DP  RH WIND       PRES   REMARKS
IDAHO FALLS    CLEAR     35  29  78 NE3       30.32S
POCATELLO      CLEAR     33  29  85 N7        30.31S WCI  27
REXBURG        CLEAR     32  29  88 CALM      30.32S
$$

IDZ006-010-011-018-031-032-271200-
CENTRAL IDAHO MOUNTAINS


CITY           SKY/WX    TMP DP  RH WIND       PRES   REMARKS
MCCALL         CLEAR     32  30  92 CALM      30.26F
HAILEY         CLEAR     37  32  81 NW8       30.32F WCI  31
STANLEY          N/A     26  22  84 CALM      30.37S
SALMON         CLEAR     34  30  86 CALM      30.30S
CHALLIS        CLEAR     35  29  78 CALM      30.31S
$$

IDZ002-004-006-007-026-271200-
NORTHERN IDAHO


CITY           SKY/WX    TMP DP  RH WIND       PRES   REMARKS
LEWISTON       CLEAR     51  45  79 E10       30.13F
LOWELL           N/A     42  40  92 NW6       30.26S
COEUR D`ALENE  PTCLDY    39  37  93 E7        30.17F WCI  34
MULLAN PASS    CLEAR     41  38  89 SW7       30.22F
$$



USA.gov is the U.S. government's official web portal to all federal, state and local government web resources and services.